Location: Astronomy Club of Akron Observatory
(40.9700°N, 81.5606°W)
Time: 13:02:24
(UTC-04:00)

ATLAS 2AS CENTAUR R/B - Visible Passes

Search period start: 30 August 2016 00:00
Search period end: 09 September 2016 00:00
Orbit: 904 x 1308 km, 63.7° (Epoch: 10 August)

Date Brightness Start Highest point End Pass type
(mag) Time Alt. Az. Time Alt. Az. Time Alt. Az.
02 Sep 5.9 06:21:18 10° ESE 06:23:32 11° E 06:25:49 10° E visible
05 Sep 5.4 05:55:20 10° SE 05:59:40 17° ESE 06:04:12 10° ENE visible
07 Sep 4.6 06:13:36 10° S 06:20:14 36° ESE 06:27:18 10° NE visible
08 Sep 5.1 05:30:23 10° SSE 05:35:53 23° ESE 05:41:39 10° ENE visible
